World > North America > United States > Minnesota > Apple Valley

Apple Valley, MN Hourly Weather Conditions

Feedback E-mail the Weather

Quick WX

Apple Valley, MN Weather Maps

°F °C°F °C
Apple Valley Weather Map
UTC Time: 11/27/2022, 16:02
Your Time:

Apple Valley, MN Regional Weather

Expires:202211271600;;895639
ASUS43 KMPX 271510
RWRMN 
WEATHER ROUNDUP FOR MINNESOTA
NATIONAL WEATHER SERVICE TWIN CITIES/CHANHASSEN MN
900 AM CST SUN NOV 27 2022


NOTE: "FAIR" INDICATES FEW OR NO CLOUDS BELOW 12,000 FEET WITH NO
SIGNIFICANT WEATHER AND/OR OBSTRUCTIONS TO VISIBILITY. N/A MEANS
CURRENT SKY AND/OR WEATHER CONDITIONS ARE NOT AVAILABLE.


MNZ060>063-068>070-271600-
   Twin Cities Metro   
  
CITY           SKY/WX    TMP DP  RH WIND       PRES   REMARKS
TWIN CITIES    PTSUNNY   32  27  81 N13       29.81R WCI  22          
ST PAUL        MOSUNNY   33  28  81 N10       29.81S WCI  25          
CRYSTAL        MOSUNNY   32  27  81 N8        29.80R WCI  25          
BLAINE         MOSUNNY   32  30  93 N10       29.81R WCI  24          
LAKEVILLE      MOSUNNY   32  27  80 N10       29.80R WCI  24          
EDEN PRAIRIE   MOSUNNY   33  27  78 N9        29.79R WCI  25          
SOUTH ST PAUL  MOSUNNY   33  29  86 N10       29.80R WCI  24          
LAKE ELMO      FAIR      32  28  86 N9        29.80S WCI  24          
$$

SKY/WX - Weather  TMP - Temperature  DP - Dew Point  RH - Humidity
WIND - Wind Direction/Speed PRES - Barometric Pressure VSB - Visibility
WCI - Wind Chill Index E13G22 Wind - East Wind 13 mph/Gusts of 22 mph

Trending Headlines

Trending Entertainment Headlines

Apple Valley Radar Loop

Use the map search tool if you want to place a location marker on the radar map...

Apple Valley Quick Facts

National Two Day Weather Forecast


E-mail the Apple Valley Weather Forecast

Voice your opinion or tell us about page issues...